Retour au catalogue

SL-12 DEB

LostHEO
NORAD 29405·DEBRIS·🇷🇺 Russia

Lancé May 31, 1989 depuis Baikonur Cosmodrome

Loading…

Prochains Passages (prochaines 24 heures)

TLE

PériméSource: Space-Track

Époque: Sep 28, 2006, 23:20 UTC

1 29405U 89039BH  06271.97248304  .00002431  00000-0  68883+0 0  9994
2 29405  65.6709 256.7968 5015472  66.9053 337.3627  4.18218834  2148

Suivez SL-12 DEB en temps réel avec AllMySat

Download on the App Store